FW4012 Weather Reports


Display with metric or nautical units.
time (UTC)temp
F
wind
direction
speed
MPH
gust
MPH
rain 1hr
in
rain 24hr
in
rain mn
in
humidity
%
barometer
mb
20220927120753 70 115 1.0 7.0 0.00 0.00 0.00 52 1000.7
20220927120230 70 159 3.0 7.0 0.00 0.00 0.00 52 1000.9
20220927115735 69 111 2.0 6.0 0.00 0.00 0.00 49 1001.0
20220927115259 70 109 3.0 9.0 0.00 0.00 0.00 51 1000.9
20220927114812 70 313 3.0 9.0 0.00 0.00 0.00 52 1001.0
20220927114314 70 292 4.0 7.0 0.00 0.00 0.00 52 1001.0
20220927114232 70 292 4.0 7.0 0.00 0.00 0.00 52 1001.0
20220927113816 70 304 2.0 5.0 0.00 0.00 0.00 53 1001.0
20220927113734 70 304 2.0 5.0 0.00 0.00 0.00 53 1001.0
20220927113242 69 336 1.0 8.0 0.00 0.00 0.00 53 1001.0
20220927112836 69 315 4.0 10.0 0.00 0.00 0.00 53 1001.1
20220927112229 70 266 3.0 10.0 0.00 0.00 0.00 55 1001.2
20220927111804 69 310 0.0 3.0 0.00 0.00 0.00 56 1001.3
20220927111327 68 34 1.0 6.0 0.00 0.00 0.00 57 1001.3
20220927111245 68 34 1.0 6.0 0.00 0.00 0.00 57 1001.3
20220927110730 69 266 2.0 8.0 0.00 0.00 0.00 57 1001.4
20220927110233 69 229 2.0 8.0 0.00 0.00 0.00 55 1001.5
20220927105758 69 148 2.0 7.0 0.00 0.00 0.00 59 1001.5
20220927105243 70 179 2.0 5.0 0.00 0.00 0.00 62 1001.5
20220927104732 69 11 1.0 6.0 0.00 0.00 0.00 64 1001.4
20220927104236 69 153 3.0 6.0 0.00 0.00 0.00 64 1001.3
20220927103750 68 270 1.0 8.0 0.00 0.00 0.00 63 1001.3
20220927103255 69 154 2.0 8.0 0.00 0.00 0.00 61 1001.2
20220927102730 69 114 4.0 8.0 0.00 0.00 0.00 62 1001.3
20220927102254 68 248 2.0 3.0 0.00 0.00 0.00 63 1001.3
20220927101805 67 185 1.0 4.0 0.00 0.00 0.00 65 1001.3
20220927101249 67 125 1.0 6.0 0.00 0.00 0.00 67 1001.3
20220927100810 67 186 2.0 6.0 0.00 0.00 0.00 64 1001.3
20220927100314 66 128 1.0 5.0 0.00 0.00 0.00 67 1001.4
20220927100232 66 128 1.0 5.0 0.00 0.00 0.00 67 1001.4
20220927095735 66 115 3.0 6.0 0.00 0.00 0.00 67 1001.4
20220927095241 66 130 2.0 7.0 0.00 0.00 0.00 67 1001.6
20220927094746 67 153 3.0 7.0 0.00 0.00 0.00 68 1001.7
20220927094243 67 234 3.0 4.0 0.00 0.00 0.00 65 1001.7
20220927093749 67 167 2.0 7.0 0.00 0.00 0.00 67 1001.7
20220927093254 66 161 3.0 5.0 0.00 0.00 0.00 69 1001.8
20220927092756 64 224 2.0 4.0 0.00 0.00 0.00 68 1001.8
20220927092301 64 13 2.0 6.0 0.00 0.00 0.00 70 1001.7
20220927091744 65 25 4.0 6.0 0.00 0.00 0.00 68 1001.7
20220927091306 66 311 4.0 6.0 0.00 0.00 0.00 69 1001.7
20220927090749 65 311 3.0 4.0 0.00 0.00 0.00 70 1001.7
20220927090255 64 296 2.0 4.0 0.00 0.00 0.00 73 1001.7
20220927085736 63 103 2.0 4.0 0.00 0.00 0.00 73 1001.7
20220927085305 62 144 3.0 4.0 0.00 0.00 0.00 73 1001.6
20220927084816 62 31 2.0 6.0 0.00 0.00 0.00 73 1001.7
20220927084228 62 323 1.0 8.0 0.00 0.00 0.00 73 1001.6
20220927083733 63 124 2.0 5.0 0.00 0.00 0.00 73 1001.8
20220927083315 63 209 2.0 3.0 0.00 0.00 0.00 72 1001.7
20220927082728 63 180 2.0 3.0 0.00 0.00 0.00 74 1001.7
20220927082321 62 150 1.0 3.0 0.00 0.00 0.00 76 1001.6
20220927081744 61 150 2.0 4.0 0.00 0.00 0.00 76 1001.6
20220927081230 61 110 2.0 4.0 0.00 0.00 0.00 78 1001.7
20220927080812 60 130 1.0 3.0 0.00 0.00 0.00 79 1001.7
20220927080235 60 130 1.0 3.0 0.00 0.00 0.00 80 1001.7
20220927075739 59 131 1.0 4.0 0.00 0.00 0.00 81 1001.7
20220927075305 59 158 0.0 3.0 0.00 0.00 0.00 81 1001.6
20220927074742 59 337 2.0 3.0 0.00 0.00 0.00 81 1001.7
20220927074309 58 337 0.0 5.0 0.00 0.00 0.00 81 1001.7
20220927073820 58 5 2.0 5.0 0.00 0.00 0.00 83 1001.6
20220927073738 58 5 2.0 5.0 0.00 0.00 0.00 83 1001.6
20220927073234 58 5 3.0 5.0 0.00 0.00 0.00 84 1001.5
20220927072739 57 24 3.0 5.0 0.00 0.00 0.00 86 1001.6
20220927072313 56 350 1.0 3.0 0.00 0.00 0.00 87 1001.6
20220927072231 56 350 1.0 3.0 0.00 0.00 0.00 87 1001.6
20220927071756 56 322 1.0 3.0 0.00 0.00 0.00 89 1001.6
20220927071238 55 316 1.0 4.0 0.00 0.00 0.00 91 1001.6
20220927070739 54 327 2.0 4.0 0.00 0.00 0.00 92 1001.6
20220927070332 54 321 3.0 4.0 0.00 0.00 0.00 94 1001.5
20220927065755 53 329 1.0 3.0 0.00 0.00 0.00 94 1001.5
20220927065228 53 329 2.0 3.0 0.00 0.00 0.00 94 1001.5
20220927064732 53 329 0.0 0.0 0.00 0.00 0.00 95 1001.5
20220927064247 52 329 0.0 0.0 0.00 0.00 0.00 94 1001.6
20220927063751 52 329 0.0 0.0 0.00 0.00 0.00 94 1001.5
20220927063246 52 329 0.0 0.0 0.00 0.00 0.00 94 1001.6
20220927062731 51 329 0.0 0.0 0.00 0.00 0.00 94 1001.6
20220927062230 51 329 0.0 0.0 0.00 0.00 0.00 94 1001.6
20220927061734 51 329 0.0 0.0 0.00 0.00 0.00 94 1001.4
20220927061255 51 329 0.0 0.0 0.00 0.00 0.00 94 1001.4
20220927060737 51 329 0.0 0.0 0.00 0.00 0.00 94 1001.5
20220927060241 50 329 0.0 0.0 0.00 0.00 0.00 94 1001.5
20220927055743 50 329 0.0 0.0 0.00 0.00 0.00 94 1001.6
20220927055247 50 329 0.0 0.0 0.00 0.00 0.00 94 1001.5
20220927054754 50 329 0.0 0.0 0.00 0.00 0.00 94 1001.5
20220927054317 50 329 0.0 0.0 0.00 0.00 0.00 94 1001.4
20220927054235 50 329 0.0 0.0 0.00 0.00 0.00 94 1001.4
20220927053740 50 329 0.0 0.0 0.00 0.00 0.00 94 1001.4
20220927053246 51 329 0.0 0.0 0.00 0.00 0.00 94 1001.5
20220927052809 51 329 0.0 0.0 0.00 0.00 0.00 94 1001.5
20220927052255 51 329 0.0 0.0 0.00 0.00 0.00 94 1001.5
20220927051731 51 329 0.0 0.0 0.00 0.00 0.00 94 1001.4
20220927051325 51 329 0.0 0.0 0.00 0.00 0.00 94 1001.4
20220927051243 51 329 0.0 0.0 0.00 0.00 0.00 94 1001.4
20220927050727 51 329 0.0 0.0 0.00 0.00 0.00 94 1001.4
20220927050250 50 329 0.0 0.0 0.00 0.00 0.00 94 1001.4
20220927045816 50 329 0.0 0.0 0.00 0.04 0.00 94 1001.4
20220927045734 50 329 0.0 0.0 0.00 0.04 0.00 94 1001.4
20220927045239 50 329 0.0 0.0 0.00 0.04 0.00 94 1001.5
20220927044744 50 329 0.0 1.0 0.00 0.04 0.00 93 1001.4
20220927044243 50 329 0.0 1.0 0.00 0.04 0.00 93 1001.3
20220927043748 50 329 0.0 3.0 0.00 0.04 0.00 93 1001.4
20220927043231 50 329 1.0 3.0 0.00 0.04 0.00 93 1001.4
20220927042735 50 329 1.0 3.0 0.00 0.04 0.00 93 1001.5
20220927042240 50 329 0.0 1.0 0.00 0.04 0.00 93 1001.3
20220927041744 50 329 0.0 2.0 0.00 0.04 0.00 93 1001.3
20220927041247 50 329 1.0 2.0 0.00 0.04 0.00 93 1001.3
20220927040814 51 329 1.0 2.0 0.00 0.04 0.00 93 1001.5
20220927040236 51 329 0.0 1.0 0.00 0.04 0.00 93 1001.5
20220927035739 51 329 0.0 2.0 0.00 0.04 0.00 93 1001.4
20220927035244 51 329 0.0 2.0 0.00 0.04 0.00 93 1001.5
20220927034736 51 329 1.0 3.0 0.00 0.04 0.00 93 1001.7
20220927034240 51 329 1.0 3.0 0.00 0.04 0.00 93 1001.6
20220927033815 51 329 2.0 3.0 0.00 0.04 0.00 93 1001.7
20220927033229 51 329 1.0 2.0 0.00 0.04 0.00 93 1001.7
20220927032822 51 329 1.0 2.0 0.00 0.04 0.00 93 1001.7
20220927032740 51 329 1.0 2.0 0.00 0.04 0.00 93 1001.7
20220927032333 51 329 0.0 2.0 0.00 0.04 0.00 93 1001.6
20220927032251 51 329 0.0 2.0 0.00 0.04 0.00 93 1001.6
20220927031754 51 329 1.0 2.0 0.00 0.04 0.00 93 1001.7
20220927031255 51 329 0.0 2.0 0.00 0.04 0.00 93 1001.8
20220927030737 51 329 0.0 2.0 0.00 0.04 0.00 93 1001.8
20220927030301 51 329 1.0 3.0 0.00 0.04 0.00 93 1001.8
20220927025746 51 329 2.0 3.0 0.00 0.04 0.00 93 1001.8
20220927025250 51 329 1.0 4.0 0.00 0.04 0.00 93 1001.7
20220927024733 51 330 3.0 4.0 0.00 0.04 0.00 93 1001.8
20220927024257 51 330 3.0 4.0 0.00 0.04 0.00 93 1001.8
20220927023741 51 330 1.0 2.0 0.00 0.04 0.00 93 1001.8
20220927023245 51 330 0.0 2.0 0.00 0.04 0.00 93 1001.8
20220927022731 51 330 0.0 2.0 0.00 0.04 0.00 93 1001.9
20220927022236 51 330 0.0 1.0 0.00 0.04 0.00 93 1001.9
20220927021737 51 330 0.0 0.0 0.00 0.04 0.00 93 1002.0
20220927021331 51 330 0.0 0.0 0.00 0.04 0.00 93 1002.1
20220927021248 51 330 0.0 0.0 0.00 0.04 0.00 93 1002.1
20220927020743 51 329 0.0 1.0 0.00 0.04 0.00 92 1002.2
20220927020229 51 329 0.0 2.0 0.00 0.04 0.00 92 1002.3
20220927015733 51 329 1.0 3.0 0.00 0.04 0.00 92 1002.3
20220927015325 51 329 2.0 3.0 0.00 0.04 0.00 93 1002.4
20220927015243 51 329 2.0 3.0 0.00 0.04 0.00 93 1002.4
20220927014746 51 329 1.0 3.0 0.00 0.04 0.00 92 1002.4
20220927014250 51 329 0.0 2.0 0.00 0.04 0.00 93 1002.4
20220927013810 51 329 1.0 2.0 0.00 0.04 0.00 93 1002.5
20220927013253 51 329 0.0 1.0 0.00 0.04 0.00 92 1002.8
20220927012735 51 329 0.0 2.0 0.00 0.04 0.00 92 1002.8
20220927012259 52 329 1.0 3.0 0.00 0.04 0.00 93 1002.8
20220927011812 51 330 1.0 3.0 0.00 0.04 0.00 92 1002.8
20220927011314 51 330 2.0 3.0 0.00 0.04 0.00 92 1002.8
20220927010738 51 330 0.0 4.0 0.00 0.04 0.00 92 1002.9
20220927010258 51 330 3.0 4.0 0.00 0.04 0.00 92 1002.9
20220927005802 51 334 2.0 4.0 0.00 0.04 0.00 92 1002.8
20220927005315 51 273 3.0 3.0 0.00 0.04 0.00 92 1003.0
20220927004750 51 304 0.0 3.0 0.00 0.04 0.00 92 1003.1
20220927004323 51 304 1.0 3.0 0.00 0.04 0.00 92 1003.3
20220927004240 51 304 1.0 3.0 0.00 0.04 0.00 92 1003.3
20220927003744 51 304 1.0 2.0 0.00 0.04 0.00 92 1003.4
20220927003310 51 304 1.0 2.0 0.00 0.04 0.00 91 1003.5
20220927003228 51 304 1.0 2.0 0.00 0.04 0.00 91 1003.5
20220927002750 51 304 0.0 2.0 0.00 0.04 0.00 91 1003.5
20220927002234 52 304 1.0 2.0 0.00 0.04 0.00 91 1003.5
20220927001745 52 304 1.0 2.0 0.00 0.04 0.00 91 1003.4
20220927001248 52 304 0.0 1.0 0.00 0.04 0.00 91 1003.4
20220927000812 52 304 0.0 1.0 0.00 0.04 0.00 91 1003.5
20220927000730 52 304 0.0 1.0 0.00 0.04 0.00 91 1003.5
20220927000255 52 304 0.0 1.0 0.00 0.04 0.00 91 1003.6
20220926235806 53 305 0.0 2.0 0.00 0.04 0.00 91 1003.7
20220926235249 53 304 0.0 3.0 0.00 0.04 0.00 91 1003.8
20220926234813 53 305 2.0 3.0 0.00 0.04 0.00 91 1003.8
20220926233830 53 305 1.0 2.0 0.00 0.04 0.00 90 1003.8
20220926233747 53 305 1.0 2.0 0.00 0.04 0.00 90 1003.8
20220926233252 53 305 0.0 1.0 0.00 0.04 0.00 90 1003.9
20220926232757 53 304 0.0 1.0 0.00 0.04 0.00 90 1003.8
20220926232300 53 304 0.0 2.0 0.00 0.04 0.00 90 1003.9
20220926231821 54 304 1.0 3.0 0.00 0.04 0.00 90 1004.0
20220926231244 54 304 3.0 3.0 0.00 0.04 0.00 91 1004.0
20220926230750 54 295 1.0 4.0 0.00 0.04 0.00 90 1004.2
20220926230233 54 295 3.0 4.0 0.00 0.04 0.00 91 1004.2
20220926225738 54 298 2.0 4.0 0.00 0.04 0.00 91 1004.2
20220926225305 53 47 2.0 4.0 0.00 0.04 0.00 91 1004.4
20220926224816 53 271 0.0 2.0 0.00 0.04 0.00 90 1004.3
20220926224231 53 271 1.0 2.0 0.00 0.04 0.00 90 1004.4
20220926223737 53 265 0.0 0.0 0.00 0.04 0.00 90 1004.5
20220926223242 54 265 0.0 1.0 0.00 0.04 0.00 90 1004.5
20220926222834 54 265 0.0 1.0 0.00 0.04 0.00 89 1004.6
20220926222751 54 265 0.0 1.0 0.00 0.04 0.00 89 1004.6
20220926222232 54 265 0.0 3.0 0.00 0.04 0.00 89 1004.7
20220926221728 54 264 2.0 3.0 0.00 0.04 0.00 90 1004.5
20220926221235 54 264 2.0 3.0 0.00 0.04 0.00 89 1004.6
20220926220739 55 163 0.0 2.0 0.00 0.04 0.00 89 1004.7
20220926220314 55 161 0.0 3.0 0.00 0.04 0.00 89 1004.8
20220926215730 55 161 2.0 3.0 0.00 0.04 0.01 89 1004.9
20220926215256 55 161 0.0 1.0 0.00 0.04 0.01 90 1005.0
20220926214810 55 161 0.0 8.0 0.00 0.04 0.01 90 1005.1
20220926214251 55 161 3.0 8.0 0.00 0.04 0.01 90 1005.3
20220926213728 55 355 1.0 10.0 0.00 0.04 0.01 90 1005.2
20220926213234 54 151 7.0 10.0 0.00 0.04 0.01 90 1005.4
20220926212735 54 336 1.0 2.0 0.00 0.04 0.01 90 1005.1
20220926212241 54 336 0.0 2.0 0.00 0.04 0.01 90 1005.1
20220926211746 54 336 0.0 2.0 0.00 0.04 0.01 89 1005.1
20220926211252 54 337 0.0 1.0 0.00 0.04 0.01 89 1005.1
20220926210754 55 337 0.0 0.0 0.00 0.04 0.01 89 1005.1
20220926210325 55 336 0.0 0.0 0.00 0.04 0.01 88 1005.1
20220926205803 55 336 0.0 0.0 0.00 0.04 0.01 88 1005.2
20220926205308 55 336 0.0 2.0 0.00 0.04 0.01 88 1005.2
20220926204755 56 336 1.0 3.0 0.00 0.04 0.01 88 1005.2
20220926204307 56 336 2.0 3.0 0.00 0.04 0.01 88 1005.3
20220926203810 56 336 1.0 2.0 0.00 0.04 0.01 88 1005.4
20220926203254 56 336 1.0 2.0 0.00 0.04 0.01 88 1005.4
20220926202739 56 336 0.0 0.0 0.00 0.04 0.01 88 1005.5
20220926202242 56 336 0.0 3.0 0.00 0.04 0.01 88 1005.7
20220926201811 57 336 0.0 3.0 0.00 0.04 0.01 88 1005.8
20220926201255 57 336 2.0 3.0 0.00 0.04 0.01 88 1005.9
20220926200803 57 336 1.0 2.0 0.00 0.04 0.01 88 1006.0
20220926200236 57 336 1.0 3.0 0.00 0.04 0.01 87 1006.1
20220926195810 57 336 2.0 3.0 0.00 0.04 0.01 88 1006.1
20220926195313 57 336 1.0 3.0 0.00 0.04 0.01 87 1006.0
20220926195231 57 336 1.0 3.0 0.00 0.04 0.01 87 1006.0
20220926194733 57 336 1.0 2.0 0.00 0.04 0.01 87 1006.1
20220926194324 57 336 0.0 1.0 0.00 0.04 0.01 87 1006.0
20220926193747 57 336 0.0 1.0 0.00 0.04 0.01 86 1006.0
20220926193252 58 336 0.0 1.0 0.00 0.04 0.01 86 1006.0
20220926192730 58 336 0.0 1.0 0.00 0.04 0.01 86 1005.9
20220926192244 58 336 0.0 1.0 0.00 0.04 0.01 86 1006.0
20220926191750 58 336 0.0 2.0 0.00 0.04 0.01 85 1006.0
20220926191233 58 336 1.0 3.0 0.00 0.04 0.01 85 1006.0
20220926190738 58 336 2.0 3.0 0.00 0.04 0.01 85 1005.9
20220926190245 58 336 1.0 2.0 0.00 0.04 0.01 85 1005.9
20220926185812 59 336 0.0 0.0 0.00 0.04 0.01 85 1005.9
20220926185235 59 336 0.0 0.0 0.00 0.04 0.01 85 1005.9
20220926184816 59 336 0.0 0.0 0.00 0.04 0.01 85 1005.9
20220926184733 59 336 0.0 0.0 0.00 0.04 0.01 85 1005.9
20220926184239 59 336 0.0 0.0 0.00 0.04 0.01 84 1005.9
20220926183812 59 336 0.0 0.0 0.00 0.04 0.01 84 1005.9
20220926183228 59 336 0.0 0.0 0.00 0.04 0.01 83 1005.9
20220926182754 59 336 0.0 1.0 0.00 0.04 0.01 83 1005.9
20220926182237 59 336 0.0 1.0 0.00 0.04 0.01 83 1005.9
20220926181742 59 336 0.0 0.0 0.00 0.04 0.01 83 1005.9
20220926181247 60 336 0.0 1.0 0.00 0.04 0.01 82 1005.9
20220926180731 60 336 0.0 1.0 0.00 0.04 0.01 82 1006.0
20220926180237 60 337 0.0 2.0 0.00 0.04 0.01 82 1005.9
20220926175741 60 336 1.0 2.0 0.00 0.04 0.01 81 1006.0
20220926175305 60 336 0.0 0.0 0.00 0.04 0.01 80 1005.9
20220926174747 61 337 0.0 1.0 0.00 0.04 0.01 80 1005.9
20220926174232 61 337 0.0 2.0 0.00 0.04 0.01 79 1005.9
20220926173816 61 337 1.0 2.0 0.00 0.04 0.01 78 1006.0
20220926173734 61 337 1.0 2.0 0.00 0.04 0.01 78 1006.0
20220926173239 62 337 0.0 1.0 0.00 0.04 0.01 77 1005.9
20220926172753 62 336 0.0 1.0 0.00 0.04 0.01 77 1005.9
20220926172316 62 336 0.0 0.0 0.00 0.04 0.01 75 1006.0
20220926171731 63 336 0.0 1.0 0.00 0.04 0.01 75 1006.0
20220926171300 63 336 1.0 1.0 0.00 0.04 0.01 74 1006.0
20220926170734 64 336 1.0 1.0 0.00 0.04 0.01 72 1006.0
20220926170311 64 336 0.0 2.0 0.00 0.04 0.01 69 1006.0
20220926170228 64 336 0.0 2.0 0.00 0.04 0.01 69 1006.0
20220926165731 64 336 1.0 2.0 0.00 0.08 0.01 69 1006.0
20220926165237 65 336 2.0 3.0 0.00 0.08 0.01 68 1006.1
20220926164801 65 346 2.0 3.0 0.00 0.08 0.01 67 1006.0
20220926164316 65 319 1.0 3.0 0.00 0.08 0.01 68 1005.9
20220926164234 65 319 1.0 3.0 0.00 0.08 0.01 68 1005.9
20220926163758 65 319 1.0 3.0 0.00 0.08 0.01 66 1005.9
20220926163319 66 319 2.0 3.0 0.00 0.08 0.01 65 1005.9
20220926162743 66 5 0.0 3.0 0.00 0.08 0.01 64 1005.8
20220926162228 66 5 2.0 3.0 0.00 0.08 0.01 63 1005.9
20220926161734 66 321 2.0 4.0 0.00 0.08 0.01 61 1005.9
20220926161241 67 338 3.0 4.0 0.00 0.08 0.01 61 1005.9
20220926160746 67 311 1.0 4.0 0.00 0.08 0.01 59 1005.9
20220926160232 67 288 3.0 4.0 0.00 0.08 0.01 59 1005.9
20220926155759 68 295 2.0 5.0 0.00 0.08 0.01 58 1005.8
20220926155242 68 295 3.0 5.0 0.00 0.08 0.01 57 1006.0
20220926154821 69 276 3.0 4.0 0.00 0.08 0.01 55 1005.9
20220926154738 69 276 3.0 4.0 0.00 0.08 0.01 55 1005.9
20220926154242 70 280 2.0 5.0 0.00 0.08 0.01 54 1006.0
20220926153746 70 306 4.0 5.0 0.00 0.08 0.01 54 1006.1
20220926153231 70 292 1.0 3.0 0.00 0.08 0.01 47 1006.1
20220926152756 70 247 1.0 3.0 0.00 0.08 0.01 48 1006.0
20220926152242 71 186 1.0 6.0 0.00 0.08 0.01 48 1006.1
20220926151806 70 242 4.0 6.0 0.00 0.08 0.01 48 1006.0
20220926151249 70 240 1.0 4.0 0.00 0.08 0.01 49 1006.1
20220926150734 70 244 2.0 5.0 0.00 0.08 0.01 50 1006.2
20220926150238 70 277 2.0 5.0 0.00 0.08 0.01 51 1006.3
20220926145802 70 158 3.0 7.0 0.00 0.08 0.01 49 1006.3
20220926145314 70 196 3.0 7.0 0.00 0.08 0.01 50 1006.3
20220926144728 71 166 4.0 7.0 0.00 0.08 0.01 51 1006.3
20220926144247 70 228 3.0 7.0 0.00 0.08 0.01 49 1006.4
20220926143822 70 273 3.0 6.0 0.00 0.08 0.01 52 1006.6
20220926143740 70 273 3.0 6.0 0.00 0.08 0.01 52 1006.6
20220926143306 71 270 3.0 6.0 0.00 0.08 0.01 50 1006.5
20220926142750 71 120 3.0 9.0 0.00 0.08 0.01 49 1006.6
20220926142256 70 225 2.0 11.0 0.00 0.08 0.01 51 1006.6
20220926141822 70 246 6.0 11.0 0.00 0.08 0.01 50 1006.5
20220926141242 70 168 4.0 9.0 0.00 0.08 0.01 51 1006.6
20220926140747 70 232 2.0 6.0 0.00 0.08 0.01 50 1006.6
20220926140232 70 194 3.0 5.0 0.00 0.08 0.01 50 1006.7
20220926135825 70 151 2.0 7.0 0.00 0.08 0.01 52 1006.8
20220926135742 70 151 2.0 7.0 0.00 0.08 0.01 52 1006.8
20220926135248 71 170 0.0 9.0 0.00 0.08 0.01 50 1006.8
20220926134811 70 155 2.0 7.0 0.00 0.08 0.01 52 1006.9
20220926134728 70 155 2.0 7.0 0.00 0.08 0.01 52 1006.9
20220926134234 69 19 2.0 7.0 0.00 0.08 0.01 50 1006.9
20220926133739 70 171 1.0 9.0 0.00 0.08 0.01 49 1006.9
20220926133317 70 153 5.0 9.0 0.00 0.08 0.01 51 1007.0
20220926132741 70 167 3.0 9.0 0.00 0.08 0.01 52 1007.0
20220926132247 70 145 4.0 9.0 0.00 0.08 0.01 53 1007.1
20220926131731 71 194 2.0 9.0 0.00 0.08 0.01 51 1007.1
20220926131317 71 96 3.0 7.0 0.00 0.08 0.01 51 1007.2
20220926130747 70 243 4.0 6.0 0.00 0.08 0.01 54 1007.2
20220926130231 69 64 2.0 9.0 0.00 0.08 0.01 52 1007.3
20220926125733 71 94 5.0 10.0 0.00 0.08 0.01 49 1007.4
20220926125232 71 195 5.0 12.0 0.00 0.08 0.01 52 1007.4
20220926124736 70 137 5.0 12.0 0.00 0.08 0.01 55 1007.6
20220926124240 69 151 3.0 8.0 0.00 0.08 0.01 54 1007.6
20220926123745 69 254 1.0 3.0 0.00 0.08 0.01 53 1007.7
20220926123249 70 244 1.0 8.0 0.00 0.08 0.01 50 1007.8
20220926122741 70 162 5.0 8.0 0.00 0.08 0.01 52 1007.7
20220926122243 70 163 4.0 8.0 0.00 0.08 0.01 52 1007.8
20220926121747 69 150 3.0 9.0 0.00 0.08 0.01 52 1007.9
20220926121311 69 237 5.0 9.0 0.00 0.08 0.01 55 1007.9